| time (UTC) | temp F | wind direction | speed knots | gust knots | rain 1hr in | rain 24hr in | rain mn in | humidity % | barometer mb |
| 20260507033916 | 65 | 80 | 2.6 | 4.3 | 0.00 | 0.00 | 0.00 | 65 | 1018.6 |
| 20260507033414 | 65 | 70 | 1.7 | 3.5 | 0.00 | 0.00 | 0.00 | 65 | 1018.7 |
| 20260507032911 | 66 | 78 | 2.6 | 6.1 | 0.00 | 0.00 | 0.00 | 65 | 1018.6 |
| 20260507032408 | 66 | 62 | 2.6 | 3.5 | 0.00 | 0.00 | 0.00 | 65 | 1018.7 |
| 20260507031904 | 66 | 67 | 2.6 | 4.3 | 0.00 | 0.00 | 0.00 | 64 | 1018.6 |
| 20260507031400 | 66 | 68 | 2.6 | 4.3 | 0.00 | 0.00 | 0.00 | 64 | 1018.4 |
| 20260507030857 | 66 | 6 | 1.7 | 4.3 | 0.00 | 0.00 | 0.00 | 65 | 1018.4 |
| 20260507030354 | 66 | 30 | 0.9 | 2.6 | 0.00 | 0.00 | 0.00 | 64 | 1018.5 |
| 20260507025851 | 66 | 354 | 1.7 | 3.5 | 0.00 | 0.00 | 0.00 | 64 | 1018.4 |
| 20260507025349 | 66 | 277 | 1.7 | 4.3 | 0.00 | 0.00 | 0.00 | 63 | 1018.3 |
| 20260507024846 | 67 | 294 | 5.2 | 7.0 | 0.00 | 0.00 | 0.00 | 62 | 1018.4 |
| 20260507024343 | 67 | 303 | 1.7 | 3.5 | 0.00 | 0.00 | 0.00 | 62 | 1018.3 |
| 20260507023839 | 67 | 328 | 2.6 | 6.1 | 0.00 | 0.00 | 0.00 | 62 | 1018.2 |
| 20260507023336 | 68 | 5 | 1.7 | 3.5 | 0.00 | 0.00 | 0.00 | 61 | 1018.0 |
| 20260507022834 | 68 | 290 | 1.7 | 3.5 | 0.00 | 0.00 | 0.00 | 61 | 1018.0 |
| 20260507022330 | 68 | 269 | 0.9 | 6.1 | 0.00 | 0.00 | 0.00 | 61 | 1018.0 |
| 20260507021826 | 68 | 299 | 2.6 | 7.0 | 0.00 | 0.00 | 0.00 | 60 | 1018.0 |
| 20260507021321 | 69 | 270 | 2.6 | 9.6 | 0.00 | 0.00 | 0.00 | 59 | 1017.9 |
| 20260507020820 | 70 | 289 | 3.5 | 4.3 | 0.00 | 0.00 | 0.00 | 58 | 1017.6 |
| 20260507020316 | 70 | 318 | 0.0 | 6.1 | 0.00 | 0.00 | 0.00 | 57 | 1017.6 |
| 20260507015813 | 71 | 29 | 2.6 | 7.8 | 0.00 | 0.00 | 0.00 | 57 | 1017.8 |
| 20260507015311 | 71 | 269 | 3.5 | 6.1 | 0.00 | 0.00 | 0.00 | 57 | 1017.8 |
| 20260507014808 | 71 | 315 | 3.5 | 8.7 | 0.00 | 0.00 | 0.00 | 56 | 1017.8 |
| 20260507014304 | 71 | 273 | 4.3 | 9.6 | 0.00 | 0.00 | 0.00 | 57 | 1017.6 |
| 20260507013800 | 72 | 315 | 5.2 | 9.6 | 0.00 | 0.00 | 0.00 | 55 | 1017.8 |
| 20260507013258 | 72 | 320 | 4.3 | 8.7 | 0.00 | 0.00 | 0.00 | 55 | 1017.8 |
| 20260507012755 | 72 | 289 | 3.5 | 10.4 | 0.00 | 0.00 | 0.00 | 55 | 1017.5 |
| 20260507012250 | 73 | 302 | 2.6 | 7.0 | 0.00 | 0.00 | 0.00 | 54 | 1017.3 |
| 20260507011748 | 72 | 308 | 2.6 | 8.7 | 0.00 | 0.00 | 0.00 | 55 | 1017.3 |
| 20260507011244 | 73 | 282 | 7.8 | 10.4 | 0.00 | 0.00 | 0.00 | 55 | 1017.6 |
| 20260507010744 | 73 | 282 | 7.8 | 11.3 | 0.00 | 0.00 | 0.00 | 54 | 1017.4 |
| 20260507010240 | 73 | 263 | 4.3 | 9.6 | 0.00 | 0.00 | 0.00 | 55 | 1017.2 |
| 20260507005738 | 73 | 276 | 5.2 | 11.3 | 0.00 | 0.00 | 0.00 | 54 | 1017.5 |
| 20260507005234 | 74 | 274 | 4.3 | 8.7 | 0.00 | 0.00 | 0.00 | 53 | 1017.2 |
| 20260507004731 | 74 | 284 | 4.3 | 8.7 | 0.00 | 0.00 | 0.00 | 53 | 1017.5 |
| 20260507004229 | 73 | 285 | 5.2 | 11.3 | 0.00 | 0.00 | 0.00 | 54 | 1017.3 |
| 20260507003725 | 74 | 314 | 9.6 | 9.6 | 0.00 | 0.00 | 0.00 | 52 | 1017.4 |
| 20260507003220 | 74 | 259 | 7.0 | 10.4 | 0.00 | 0.00 | 0.00 | 53 | 1017.3 |
| 20260507002716 | 76 | 260 | 4.3 | 8.7 | 0.00 | 0.00 | 0.00 | 51 | 1017.1 |
| 20260507002213 | 76 | 291 | 2.6 | 7.8 | 0.00 | 0.00 | 0.00 | 51 | 1017.4 |
| 20260507001710 | 74 | 259 | 2.6 | 12.2 | 0.00 | 0.00 | 0.00 | 52 | 1017.2 |
| 20260507001207 | 76 | 284 | 4.3 | 7.8 | 0.00 | 0.00 | 0.00 | 51 | 1017.1 |
| 20260507000703 | 75 | 282 | 6.1 | 11.3 | 0.00 | 0.00 | 0.00 | 52 | 1017.1 |
| 20260507000159 | 76 | 227 | 3.5 | 6.1 | 0.00 | 0.00 | 0.00 | 50 | 1017.1 |
| 20260506235656 | 75 | 278 | 8.7 | 12.2 | 0.00 | 0.00 | 0.00 | 51 | 1017.2 |
| 20260506235151 | 77 | 287 | 3.5 | 7.0 | 0.00 | 0.00 | 0.00 | 49 | 1017.1 |
| 20260506234648 | 76 | 283 | 5.2 | 9.6 | 0.00 | 0.00 | 0.00 | 50 | 1017.0 |
| 20260506234145 | 76 | 287 | 3.5 | 8.7 | 0.00 | 0.00 | 0.00 | 49 | 1017.1 |
| 20260506233642 | 75 | 264 | 6.1 | 14.8 | 0.00 | 0.00 | 0.00 | 51 | 1017.3 |
| 20260506233139 | 77 | 270 | 7.8 | 13.0 | 0.00 | 0.00 | 0.00 | 48 | 1017.2 |
| 20260506232635 | 76 | 264 | 5.2 | 11.3 | 0.00 | 0.00 | 0.00 | 50 | 1017.1 |
| 20260506232131 | 76 | 280 | 2.6 | 8.7 | 0.00 | 0.00 | 0.00 | 50 | 1017.1 |
| 20260506231628 | 76 | 280 | 6.1 | 8.7 | 0.00 | 0.00 | 0.00 | 50 | 1017.2 |
| 20260506231127 | 76 | 253 | 5.2 | 9.6 | 0.00 | 0.00 | 0.00 | 49 | 1017.4 |
| 20260506230624 | 76 | 310 | 4.3 | 9.6 | 0.00 | 0.00 | 0.00 | 49 | 1017.2 |
| 20260506230121 | 76 | 284 | 6.1 | 7.0 | 0.00 | 0.00 | 0.00 | 49 | 1017.4 |
| 20260506225617 | 77 | 282 | 4.3 | 10.4 | 0.00 | 0.00 | 0.00 | 49 | 1017.2 |
| 20260506225113 | 77 | 269 | 7.8 | 13.0 | 0.00 | 0.00 | 0.00 | 49 | 1017.3 |
| 20260506224610 | 77 | 320 | 2.6 | 11.3 | 0.00 | 0.00 | 0.00 | 49 | 1017.4 |
| 20260506224107 | 76 | 260 | 8.7 | 11.3 | 0.00 | 0.00 | 0.00 | 49 | 1017.3 |
| 20260506223603 | 76 | 269 | 6.1 | 10.4 | 0.00 | 0.00 | 0.00 | 50 | 1017.4 |
| 20260506223059 | 76 | 293 | 5.2 | 10.4 | 0.00 | 0.00 | 0.00 | 49 | 1017.6 |
| 20260506222556 | 78 | 253 | 4.3 | 11.3 | 0.00 | 0.00 | 0.00 | 48 | 1017.4 |
| 20260506222052 | 77 | 257 | 3.5 | 10.4 | 0.00 | 0.00 | 0.00 | 48 | 1017.6 |
| 20260506221550 | 77 | 269 | 6.1 | 13.9 | 0.00 | 0.00 | 0.00 | 48 | 1017.6 |
| 20260506221048 | 77 | 240 | 4.3 | 13.9 | 0.00 | 0.00 | 0.00 | 48 | 1017.8 |
| 20260506220543 | 77 | 179 | 2.6 | 13.9 | 0.00 | 0.00 | 0.00 | 47 | 1017.8 |
| 20260506220039 | 77 | 240 | 4.3 | 12.2 | 0.00 | 0.00 | 0.00 | 47 | 1018.0 |
| 20260506215536 | 77 | 278 | 6.1 | 8.7 | 0.00 | 0.00 | 0.00 | 47 | 1017.9 |
| 20260506215032 | 77 | 304 | 7.8 | 9.6 | 0.00 | 0.00 | 0.00 | 45 | 1018.0 |
| 20260506214529 | 78 | 327 | 2.6 | 6.1 | 0.00 | 0.00 | 0.00 | 44 | 1018.2 |
| 20260506214026 | 79 | 169 | 2.6 | 5.2 | 0.00 | 0.00 | 0.00 | 44 | 1018.0 |
| 20260506213524 | 79 | 214 | 2.6 | 5.2 | 0.00 | 0.00 | 0.00 | 43 | 1018.0 |
| 20260506213021 | 78 | 212 | 1.7 | 6.1 | 0.00 | 0.00 | 0.00 | 47 | 1018.5 |
| 20260506212518 | 79 | 267 | 1.7 | 5.2 | 0.00 | 0.00 | 0.00 | 44 | 1018.2 |
| 20260506212013 | 78 | 130 | 5.2 | 6.1 | 0.00 | 0.00 | 0.00 | 44 | 1018.2 |
| 20260506211509 | 78 | 151 | 4.3 | 7.8 | 0.00 | 0.00 | 0.00 | 44 | 1018.3 |
| 20260506211007 | 77 | 85 | 4.3 | 8.7 | 0.00 | 0.00 | 0.00 | 43 | 1018.4 |
| 20260506210503 | 77 | 317 | 1.7 | 3.5 | 0.00 | 0.00 | 0.00 | 43 | 1018.3 |
| 20260506210000 | 78 | 176 | 5.2 | 8.7 | 0.00 | 0.00 | 0.00 | 43 | 1018.6 |
| 20260506205456 | 76 | 358 | 0.9 | 4.3 | 0.00 | 0.00 | 0.00 | 43 | 1018.4 |
| 20260506204952 | 77 | 122 | 1.7 | 6.1 | 0.00 | 0.00 | 0.00 | 44 | 1018.5 |
| 20260506204450 | 76 | 198 | 2.6 | 7.8 | 0.00 | 0.00 | 0.00 | 46 | 1018.5 |
| 20260506203947 | 75 | 211 | 1.7 | 8.7 | 0.00 | 0.00 | 0.00 | 46 | 1018.6 |
| 20260506203444 | 74 | 276 | 3.5 | 5.2 | 0.00 | 0.00 | 0.00 | 46 | 1018.7 |
| 20260506202941 | 75 | 39 | 2.6 | 4.3 | 0.00 | 0.00 | 0.00 | 45 | 1018.7 |
| 20260506202438 | 74 | 236 | 6.1 | 7.8 | 0.00 | 0.00 | 0.00 | 46 | 1018.8 |
| 20260506201934 | 75 | 160 | 2.6 | 7.0 | 0.00 | 0.00 | 0.00 | 46 | 1018.9 |
| 20260506201432 | 74 | 245 | 6.1 | 9.6 | 0.00 | 0.00 | 0.00 | 47 | 1018.9 |
| 20260506200929 | 75 | 344 | 3.5 | 7.0 | 0.00 | 0.00 | 0.00 | 45 | 1018.8 |
| 20260506200425 | 73 | 287 | 3.5 | 5.2 | 0.00 | 0.00 | 0.00 | 48 | 1018.9 |
| 20260506195921 | 73 | 77 | 1.7 | 4.3 | 0.00 | 0.00 | 0.00 | 47 | 1019.1 |
| 20260506195419 | 73 | 124 | 1.7 | 8.7 | 0.00 | 0.00 | 0.00 | 47 | 1019.2 |
| 20260506194915 | 73 | 83 | 2.6 | 6.1 | 0.00 | 0.00 | 0.00 | 48 | 1019.3 |
| 20260506194412 | 72 | 235 | 0.9 | 7.8 | 0.00 | 0.00 | 0.00 | 48 | 1019.1 |
| 20260506193909 | 73 | 181 | 0.0 | 4.3 | 0.00 | 0.00 | 0.00 | 48 | 1019.1 |
| 20260506193406 | 73 | 274 | 4.3 | 6.1 | 0.00 | 0.00 | 0.00 | 47 | 1019.2 |
| 20260506192902 | 72 | 358 | 1.7 | 4.3 | 0.00 | 0.00 | 0.00 | 48 | 1019.4 |
| 20260506192359 | 73 | 254 | 1.7 | 4.3 | 0.00 | 0.00 | 0.00 | 50 | 1019.3 |
| 20260506191856 | 72 | 172 | 4.3 | 5.2 | 0.00 | 0.00 | 0.00 | 50 | 1019.4 |
| 20260506191352 | 71 | 86 | 1.7 | 6.1 | 0.00 | 0.00 | 0.00 | 50 | 1019.7 |
| 20260506190850 | 70 | 329 | 3.5 | 6.1 | 0.00 | 0.00 | 0.00 | 53 | 1019.8 |
| 20260506190346 | 70 | 196 | 0.0 | 7.8 | 0.00 | 0.00 | 0.00 | 51 | 1019.8 |
| 20260506185843 | 72 | 144 | 2.6 | 6.1 | 0.00 | 0.00 | 0.00 | 50 | 1019.5 |
| 20260506185340 | 71 | 71 | 1.7 | 6.1 | 0.00 | 0.00 | 0.00 | 50 | 1019.7 |
| 20260506184837 | 70 | 158 | 1.7 | 4.3 | 0.00 | 0.00 | 0.00 | 51 | 1019.6 |
| 20260506184334 | 71 | 154 | 5.2 | 6.1 | 0.00 | 0.00 | 0.00 | 51 | 1020.0 |
| 20260506183832 | 69 | 207 | 2.6 | 5.2 | 0.00 | 0.00 | 0.00 | 52 | 1019.9 |
| 20260506183326 | 69 | 147 | 2.6 | 5.2 | 0.00 | 0.00 | 0.00 | 52 | 1019.7 |
| 20260506182824 | 68 | 241 | 1.7 | 5.2 | 0.00 | 0.00 | 0.00 | 54 | 1019.9 |
| 20260506182321 | 68 | 120 | 2.6 | 5.2 | 0.00 | 0.00 | 0.00 | 54 | 1019.8 |
| 20260506181819 | 67 | 184 | 1.7 | 6.1 | 0.00 | 0.00 | 0.00 | 55 | 1020.0 |
| 20260506181317 | 67 | 273 | 4.3 | 7.0 | 0.00 | 0.00 | 0.00 | 54 | 1020.2 |
| 20260506180814 | 68 | 224 | 2.6 | 6.1 | 0.00 | 0.00 | 0.00 | 54 | 1019.8 |
| 20260506180310 | 67 | 94 | 4.3 | 5.2 | 0.00 | 0.00 | 0.00 | 55 | 1020.1 |
| 20260506175806 | 68 | 23 | 0.9 | 5.2 | 0.00 | 0.00 | 0.00 | 55 | 1020.1 |
| 20260506175306 | 68 | 211 | 4.3 | 5.2 | 0.00 | 0.00 | 0.00 | 55 | 1020.1 |
| 20260506174800 | 67 | 313 | 1.7 | 4.3 | 0.00 | 0.00 | 0.00 | 56 | 1019.8 |
| 20260506174257 | 67 | 103 | 1.7 | 3.5 | 0.00 | 0.00 | 0.00 | 57 | 1020.2 |
| 20260506173755 | 66 | 33 | 5.2 | 6.1 | 0.00 | 0.00 | 0.00 | 58 | 1020.0 |
| 20260506173252 | 66 | 122 | 2.6 | 3.5 | 0.00 | 0.00 | 0.00 | 59 | 1020.0 |
| 20260506172748 | 66 | 48 | 3.5 | 4.3 | 0.00 | 0.00 | 0.00 | 58 | 1020.3 |
| 20260506172245 | 65 | 254 | 0.0 | 4.3 | 0.00 | 0.00 | 0.00 | 60 | 1020.1 |
| 20260506171743 | 65 | 186 | 2.6 | 4.3 | 0.00 | 0.00 | 0.00 | 60 | 1020.1 |
| 20260506171240 | 65 | 248 | 3.5 | 4.3 | 0.00 | 0.00 | 0.00 | 59 | 1020.4 |
| 20260506170738 | 65 | 172 | 0.0 | 4.3 | 0.00 | 0.00 | 0.00 | 61 | 1020.1 |
| 20260506170233 | 63 | 273 | 2.6 | 6.1 | 0.00 | 0.00 | 0.00 | 61 | 1020.0 |
| 20260506165732 | 63 | 266 | 5.2 | 5.2 | 0.00 | 0.00 | 0.00 | 62 | 1020.2 |
| 20260506165229 | 64 | 244 | 2.6 | 7.8 | 0.00 | 0.00 | 0.00 | 64 | 1020.2 |
| 20260506164726 | 63 | 137 | 0.9 | 3.5 | 0.00 | 0.00 | 0.00 | 66 | 1020.0 |
| 20260506164223 | 64 | 251 | 1.7 | 4.3 | 0.00 | 0.00 | 0.00 | 65 | 1020.3 |
| 20260506163720 | 63 | 93 | 3.5 | 4.3 | 0.00 | 0.00 | 0.00 | 64 | 1020.4 |
| 20260506163214 | 63 | 152 | 0.0 | 4.3 | 0.00 | 0.00 | 0.00 | 65 | 1020.1 |
| 20260506162711 | 62 | 88 | 2.6 | 3.5 | 0.00 | 0.00 | 0.00 | 68 | 1020.3 |
| 20260506162208 | 61 | 242 | 1.7 | 3.5 | 0.00 | 0.00 | 0.00 | 69 | 1020.2 |
| 20260506161706 | 61 | 254 | 2.6 | 3.5 | 0.00 | 0.00 | 0.00 | 70 | 1020.2 |
| 20260506161203 | 60 | 317 | 1.7 | 2.6 | 0.00 | 0.00 | 0.00 | 71 | 1020.1 |
| 20260506160700 | 60 | 283 | 1.7 | 4.3 | 0.00 | 0.00 | 0.00 | 72 | 1020.3 |
| 20260506160156 | 61 | 253 | 1.7 | 3.5 | 0.00 | 0.00 | 0.00 | 71 | 1020.3 |
| 20260506155655 | 59 | 309 | 1.7 | 5.2 | 0.00 | 0.00 | 0.00 | 74 | 1020.2 |
| 20260506155152 | 59 | 180 | 1.7 | 4.3 | 0.00 | 0.00 | 0.00 | 74 | 1020.2 |
| 20260506153254 | 59 | 222 | 2.6 | 4.3 | 0.00 | 0.00 | 0.00 | 74 | 1020.5 |
| 20260506152750 | 58 | 177 | 2.6 | 3.5 | 0.00 | 0.00 | 0.00 | 75 | 1020.6 |
| 20260506152248 | 58 | 36 | 2.6 | 2.6 | 0.00 | 0.00 | 0.00 | 76 | 1020.3 |
| 20260506151747 | 58 | 219 | 2.6 | 4.3 | 0.00 | 0.00 | 0.00 | 75 | 1020.4 |
| 20260506151243 | 59 | 79 | 2.6 | 4.3 | 0.00 | 0.00 | 0.00 | 74 | 1020.3 |
| 20260506150740 | 59 | 134 | 2.6 | 4.3 | 0.00 | 0.00 | 0.00 | 74 | 1020.3 |
| 20260506150237 | 59 | 104 | 0.0 | 4.3 | 0.00 | 0.00 | 0.00 | 74 | 1020.2 |
| 20260506145734 | 58 | 35 | 0.0 | 2.6 | 0.00 | 0.00 | 0.00 | 76 | 1020.1 |
| 20260506145230 | 59 | 81 | 0.9 | 3.5 | 0.00 | 0.00 | 0.00 | 74 | 1020.4 |
| 20260506144727 | 58 | 33 | 1.7 | 2.6 | 0.00 | 0.00 | 0.00 | 76 | 1020.4 |
| 20260506144225 | 57 | 84 | 2.6 | 4.3 | 0.00 | 0.00 | 0.00 | 77 | 1020.4 |
| 20260506143722 | 57 | 152 | 0.0 | 2.6 | 0.00 | 0.00 | 0.00 | 77 | 1020.4 |
| 20260506143219 | 57 | 93 | 0.0 | 2.6 | 0.00 | 0.00 | 0.00 | 78 | 1020.4 |
| 20260506142718 | 57 | 116 | 1.7 | 2.6 | 0.00 | 0.00 | 0.00 | 78 | 1020.3 |
| 20260506142216 | 57 | 73 | 0.9 | 3.5 | 0.00 | 0.00 | 0.00 | 79 | 1020.4 |
| 20260506141713 | 56 | 67 | 2.6 | 4.3 | 0.00 | 0.00 | 0.00 | 79 | 1020.1 |
| 20260506141211 | 57 | 77 | 2.6 | 3.5 | 0.00 | 0.00 | 0.00 | 79 | 1020.3 |
| 20260506140709 | 56 | 56 | 0.0 | 2.6 | 0.00 | 0.00 | 0.00 | 83 | 1020.2 |
| 20260506140206 | 54 | 41 | 0.9 | 2.6 | 0.00 | 0.00 | 0.00 | 89 | 1020.2 |
| 20260506135703 | 52 | 22 | 1.7 | 3.5 | 0.00 | 0.00 | 0.00 | 89 | 1020.0 |
| 20260506135159 | 51 | 354 | 0.0 | 2.6 | 0.00 | 0.00 | 0.00 | 92 | 1020.0 |
| 20260506134656 | 50 | 36 | 1.7 | 4.3 | 0.00 | 0.00 | 0.00 | 93 | 1020.2 |
| 20260506134152 | 50 | 16 | 2.6 | 3.5 | 0.00 | 0.00 | 0.00 | 94 | 1020.0 |
| 20260506133649 | 50 | 89 | 1.7 | 3.5 | 0.00 | 0.00 | 0.00 | 95 | 1020.0 |
| 20260506133145 | 48 | 26 | 1.7 | 3.5 | 0.00 | 0.00 | 0.00 | 95 | 1020.1 |
| 20260506132643 | 47 | 49 | 1.7 | 2.6 | 0.00 | 0.00 | 0.00 | 95 | 1019.8 |
| 20260506132139 | 48 | 74 | 1.7 | 3.5 | 0.00 | 0.00 | 0.00 | 95 | 1019.8 |
| 20260506131637 | 47 | 36 | 0.9 | 2.6 | 0.00 | 0.00 | 0.00 | 95 | 1020.1 |
| 20260506131133 | 47 | 44 | 2.6 | 3.5 | 0.00 | 0.00 | 0.00 | 94 | 1019.8 |
| 20260506130630 | 47 | 32 | 0.9 | 3.5 | 0.00 | 0.00 | 0.00 | 94 | 1019.8 |
| 20260506130128 | 47 | 28 | 2.6 | 3.5 | 0.00 | 0.00 | 0.00 | 94 | 1019.8 |
| 20260506125626 | 47 | 17 | 1.7 | 4.3 | 0.00 | 0.00 | 0.00 | 94 | 1019.5 |
| 20260506125123 | 47 | 38 | 0.9 | 2.6 | 0.00 | 0.00 | 0.00 | 94 | 1019.6 |
| 20260506124621 | 47 | 58 | 2.6 | 2.6 | 0.00 | 0.00 | 0.00 | 94 | 1019.5 |
| 20260506124118 | 48 | 64 | 0.0 | 1.7 | 0.00 | 0.00 | 0.00 | 94 | 1019.5 |
| 20260506123616 | 48 | 27 | 2.6 | 3.5 | 0.00 | 0.00 | 0.00 | 94 | 1019.5 |
| 20260506123115 | 48 | 11 | 1.7 | 3.5 | 0.00 | 0.00 | 0.00 | 93 | 1019.4 |
| 20260506122611 | 48 | 35 | 1.7 | 2.6 | 0.00 | 0.00 | 0.00 | 93 | 1019.6 |
| 20260506122109 | 48 | 83 | 0.9 | 3.5 | 0.00 | 0.00 | 0.00 | 93 | 1019.3 |
| 20260506121606 | 48 | 46 | 1.7 | 3.5 | 0.00 | 0.00 | 0.00 | 93 | 1019.3 |
| 20260506121102 | 48 | 38 | 2.6 | 3.5 | 0.00 | 0.00 | 0.00 | 93 | 1019.5 |
| 20260506120600 | 48 | 100 | 0.9 | 3.5 | 0.00 | 0.00 | 0.00 | 93 | 1019.3 |
| 20260506120057 | 49 | 23 | 1.7 | 4.3 | 0.00 | 0.00 | 0.00 | 93 | 1019.3 |
| 20260506115555 | 48 | 6 | 2.6 | 3.5 | 0.00 | 0.00 | 0.00 | 93 | 1019.2 |
| 20260506115053 | 48 | 27 | 2.6 | 2.6 | 0.00 | 0.00 | 0.00 | 92 | 1019.2 |
| 20260506114550 | 48 | 13 | 1.7 | 2.6 | 0.00 | 0.00 | 0.00 | 92 | 1019.4 |
| 20260506114049 | 49 | 55 | 1.7 | 2.6 | 0.00 | 0.00 | 0.00 | 92 | 1019.1 |
| 20260506113546 | 49 | 37 | 2.6 | 3.5 | 0.00 | 0.00 | 0.00 | 92 | 1019.3 |
| 20260506113044 | 49 | 33 | 0.0 | 2.6 | 0.00 | 0.00 | 0.00 | 92 | 1019.2 |
| 20260506112540 | 49 | 30 | 2.6 | 3.5 | 0.00 | 0.00 | 0.00 | 92 | 1019.2 |
| 20260506112037 | 49 | 39 | 2.6 | 2.6 | 0.00 | 0.00 | 0.00 | 93 | 1019.1 |
| 20260506111535 | 49 | 35 | 1.7 | 2.6 | 0.00 | 0.00 | 0.00 | 93 | 1019.0 |
| 20260506111032 | 49 | 43 | 1.7 | 3.5 | 0.00 | 0.00 | 0.00 | 93 | 1019.2 |
| 20260506110530 | 49 | 17 | 2.6 | 3.5 | 0.00 | 0.00 | 0.00 | 93 | 1019.1 |
| 20260506110027 | 50 | 15 | 2.6 | 3.5 | 0.00 | 0.00 | 0.00 | 93 | 1019.2 |
| 20260506105523 | 49 | 25 | 1.7 | 3.5 | 0.00 | 0.00 | 0.00 | 93 | 1019.1 |
| 20260506105020 | 49 | 35 | 1.7 | 2.6 | 0.00 | 0.00 | 0.00 | 93 | 1019.3 |
| 20260506104518 | 49 | 19 | 1.7 | 2.6 | 0.00 | 0.00 | 0.00 | 93 | 1019.1 |
| 20260506104016 | 49 | 40 | 0.0 | 2.6 | 0.00 | 0.00 | 0.00 | 92 | 1019.3 |
| 20260506103513 | 50 | 26 | 2.6 | 4.3 | 0.00 | 0.00 | 0.00 | 92 | 1019.3 |
| 20260506103010 | 50 | 37 | 2.6 | 3.5 | 0.00 | 0.00 | 0.00 | 92 | 1019.3 |
| 20260506102508 | 50 | 7 | 1.7 | 4.3 | 0.00 | 0.00 | 0.00 | 93 | 1019.0 |
| 20260506102005 | 49 | 61 | 2.6 | 2.6 | 0.00 | 0.00 | 0.00 | 92 | 1019.1 |
| 20260506101501 | 50 | 39 | 1.7 | 3.5 | 0.00 | 0.00 | 0.00 | 92 | 1019.2 |
| 20260506100959 | 50 | 32 | 1.7 | 2.6 | 0.00 | 0.00 | 0.00 | 92 | 1019.3 |
| 20260506100457 | 50 | 25 | 1.7 | 2.6 | 0.00 | 0.00 | 0.00 | 92 | 1019.3 |
| 20260506095955 | 50 | 21 | 2.6 | 2.6 | 0.00 | 0.00 | 0.00 | 92 | 1019.3 |
| 20260506095453 | 50 | 15 | 1.7 | 2.6 | 0.00 | 0.00 | 0.00 | 92 | 1019.5 |
| 20260506094949 | 50 | 6 | 2.6 | 3.5 | 0.00 | 0.00 | 0.00 | 92 | 1019.2 |
| 20260506094447 | 50 | 33 | 1.7 | 2.6 | 0.00 | 0.00 | 0.00 | 92 | 1019.4 |
| 20260506093944 | 50 | 41 | 1.7 | 2.6 | 0.00 | 0.00 | 0.00 | 92 | 1019.4 |
| 20260506093443 | 50 | 32 | 2.6 | 3.5 | 0.00 | 0.00 | 0.00 | 91 | 1019.4 |
| 20260506092940 | 50 | 24 | 1.7 | 2.6 | 0.00 | 0.00 | 0.00 | 91 | 1019.4 |
| 20260506092438 | 50 | 34 | 2.6 | 2.6 | 0.00 | 0.00 | 0.00 | 91 | 1019.5 |
| 20260506091934 | 50 | 35 | 2.6 | 2.6 | 0.00 | 0.00 | 0.00 | 91 | 1019.4 |
| 20260506091433 | 50 | 22 | 1.7 | 2.6 | 0.00 | 0.00 | 0.00 | 91 | 1019.7 |
| 20260506090930 | 50 | 14 | 2.6 | 3.5 | 0.00 | 0.00 | 0.00 | 91 | 1019.5 |
| 20260506090427 | 51 | 35 | 2.6 | 3.5 | 0.00 | 0.00 | 0.00 | 90 | 1019.4 |
| 20260506085923 | 51 | 37 | 1.7 | 2.6 | 0.00 | 0.00 | 0.00 | 90 | 1019.6 |
| 20260506085420 | 51 | 35 | 2.6 | 2.6 | 0.00 | 0.00 | 0.00 | 90 | 1019.7 |
| 20260506084916 | 51 | 41 | 2.6 | 3.5 | 0.00 | 0.00 | 0.00 | 90 | 1019.4 |
| 20260506084414 | 51 | 33 | 2.6 | 3.5 | 0.00 | 0.00 | 0.00 | 90 | 1019.6 |
| 20260506083910 | 51 | 46 | 1.7 | 3.5 | 0.00 | 0.00 | 0.00 | 90 | 1019.7 |
| 20260506083408 | 51 | 54 | 0.9 | 3.5 | 0.00 | 0.00 | 0.00 | 89 | 1019.6 |
| 20260506082905 | 51 | 56 | 1.7 | 3.5 | 0.00 | 0.00 | 0.00 | 89 | 1019.7 |
| 20260506082401 | 51 | 35 | 1.7 | 3.5 | 0.00 | 0.00 | 0.00 | 88 | 1019.9 |
| 20260506081857 | 51 | 45 | 2.6 | 2.6 | 0.00 | 0.00 | 0.00 | 88 | 1020.0 |
| 20260506081355 | 51 | 36 | 1.7 | 3.5 | 0.00 | 0.00 | 0.00 | 88 | 1019.7 |
| 20260506080853 | 51 | 36 | 3.5 | 3.5 | 0.00 | 0.00 | 0.00 | 87 | 1019.7 |
| 20260506080349 | 51 | 69 | 1.7 | 2.6 | 0.00 | 0.00 | 0.00 | 87 | 1019.7 |
| 20260506073333 | 51 | 38 | 2.6 | 4.3 | 0.00 | 0.00 | 0.00 | 88 | 1019.7 |
| 20260506072830 | 51 | 31 | 1.7 | 3.5 | 0.00 | 0.00 | 0.00 | 88 | 1019.8 |
| 20260506072328 | 51 | 42 | 1.7 | 3.5 | 0.00 | 0.00 | 0.00 | 88 | 1020.0 |
| 20260506071825 | 51 | 38 | 2.6 | 3.5 | 0.00 | 0.00 | 0.00 | 87 | 1020.0 |
| 20260506071323 | 51 | 46 | 1.7 | 2.6 | 0.00 | 0.00 | 0.00 | 87 | 1019.5 |
| 20260506070820 | 51 | 35 | 2.6 | 3.5 | 0.00 | 0.00 | 0.00 | 87 | 1019.5 |
| 20260506070317 | 51 | 39 | 2.6 | 3.5 | 0.00 | 0.00 | 0.00 | 86 | 1019.6 |
| 20260506062254 | 52 | 39 | 1.7 | 3.5 | 0.00 | 0.00 | 0.00 | 82 | 1019.0 |
| 20260506061750 | 53 | 43 | 1.7 | 2.6 | 0.00 | 0.00 | 0.00 | 81 | 1019.1 |
| 20260506061247 | 53 | 5 | 0.0 | 1.7 | 0.00 | 0.00 | 0.00 | 81 | 1019.0 |
| 20260506060745 | 53 | 358 | 0.9 | 2.6 | 0.00 | 0.00 | 0.00 | 81 | 1018.9 |
| 20260506060243 | 54 | 35 | 2.6 | 3.5 | 0.00 | 0.00 | 0.00 | 79 | 1019.0 |
| 20260506051215 | 54 | 39 | 2.6 | 3.5 | 0.00 | 0.00 | 0.00 | 76 | 1018.6 |
| 20260506050713 | 55 | 27 | 2.6 | 4.3 | 0.00 | 0.00 | 0.00 | 76 | 1018.4 |
| 20260506050209 | 54 | 67 | 2.6 | 3.5 | 0.00 | 0.00 | 0.00 | 77 | 1018.4 |
| 20260506044701 | 54 | 30 | 2.6 | 4.3 | 0.00 | 0.00 | 0.00 | 78 | 1018.4 |
| 20260506044157 | 54 | 22 | 2.6 | 2.6 | 0.00 | 0.00 | 0.00 | 77 | 1018.1 |
| 20260506043654 | 54 | 28 | 1.7 | 3.5 | 0.00 | 0.00 | 0.00 | 77 | 1018.2 |
| 20260506043152 | 54 | 15 | 1.7 | 3.5 | 0.00 | 0.00 | 0.00 | 78 | 1017.8 |
| 20260506042652 | 54 | 22 | 2.6 | 3.5 | 0.00 | 0.00 | 0.00 | 79 | 1018.2 |
| 20260506042149 | 54 | 33 | 2.6 | 2.6 | 0.00 | 0.00 | 0.00 | 78 | 1018.1 |
| 20260506041652 | 54 | 37 | 1.7 | 2.6 | 0.00 | 0.00 | 0.00 | 77 | 1017.9 |
| 20260506041143 | 55 | 36 | 0.0 | 2.6 | 0.00 | 0.00 | 0.00 | 77 | 1017.9 |
| 20260506040641 | 55 | 40 | 0.9 | 2.6 | 0.00 | 0.00 | 0.00 | 76 | 1017.8 |
| 20260506040138 | 55 | 28 | 1.7 | 3.5 | 0.00 | 0.00 | 0.00 | 76 | 1017.9 |
| 20260506035635 | 55 | 40 | 1.7 | 2.6 | 0.00 | 0.00 | 0.00 | 76 | 1017.6 |
| 20260506035131 | 55 | 14 | 1.7 | 2.6 | 0.00 | 0.00 | 0.00 | 75 | 1017.6 |
| 20260506034629 | 56 | 43 | 1.7 | 2.6 | 0.00 | 0.00 | 0.00 | 74 | 1017.4 |
| 20260506034125 | 57 | 53 | 1.7 | 2.6 | 0.00 | 0.00 | 0.00 | 73 | 1017.4 |